Lapse_Rate
4.7 4.7 4.7 4.6 4.7 4.7 4.8 4.7 4.7 4.7 4.8 4.9 5.0 5.0 5.1 5.3 5.7 5.9 5.8 5.7 5.8 5.8 5.8 5.7 5.6 5.4 5.8 6.0 6.1 5.8 5.6 5.2 5.3 5.8 5.8 6.3 5.7 5.7 5.8 6.2 5.7 5.3 6.0 5.4 5.6
4.6 4.6 4.6 4.6 4.6 4.6 4.6 4.7 4.7 4.6 4.6 4.7 4.9 4.9 5.2 5.3 5.6 5.6 5.5 5.9 5.8 5.7 5.9 5.8 5.4 5.2 5.5 5.8 6.0 5.7 5.7 6.0 5.5 5.6 5.4 5.5 5.1 5.6 6.0 5.2 5.2 5.0 5.3 5.4 5.8
4.5 4.5 4.5 4.5 4.5 4.5 4.5 4.6 4.5 4.5 4.5 4.5 4.6 4.7 4.9 5.2 5.4 5.2 5.7 5.8 5.9 5.9 5.8 5.6 5.4 5.4 5.4 5.2 5.5 5.8 5.9 6.1 6.0 5.7 5.8 5.7 5.3 5.2 5.5 5.5 5.6 6.1 5.5 5.2 5.3
4.6 4.6 4.5 4.5 4.5 4.5 4.4 4.4 4.4 4.3 4.3 4.3 4.4 4.6 4.7 4.9 5.1 5.1 5.5 5.8 5.9 6.0 6.0 5.9 5.9 6.0 6.0 5.7 5.6 5.8 5.8 6.1 6.3 6.3 5.9 5.7 5.6 5.5 5.0 5.8 5.4 6.0 5.4 5.2 5.1
4.5 4.6 4.5 4.5 4.5 4.5 4.4 4.2 4.1 4.1 4.1 4.3 4.4 4.5 4.6 4.7 4.7 5.1 5.5 6.0 6.2 6.2 6.2 6.1 6.3 6.3 6.0 6.0 5.9 6.3 5.9 6.0 6.1 6.2 6.0 5.7 5.6 5.5 5.4 5.4 4.9 5.6 5.2 5.4 5.4
4.5 4.5 4.5 4.6 4.6 4.6 4.4 4.1 4.0 4.0 4.1 4.2 4.4 4.6 4.6 4.6 5.0 5.2 5.2 5.8 6.1 6.3 6.3 6.5 6.6 6.0 5.5 5.6 5.6 6.0 5.6 5.9 5.9 5.8 5.8 5.4 5.4 5.3 5.6 5.1 4.8 5.5 5.1 5.1 5.4
4.3 4.3 4.5 4.6 4.6 4.5 4.3 4.0 3.9 3.9 4.1 4.3 4.5 4.8 4.7 4.4 5.2 5.9 5.6 6.0 6.3 6.5 6.6 6.6 6.1 6.3 5.6 5.4 5.7 5.8 5.8 5.9 5.7 5.4 5.4 5.0 4.8 5.2 5.4 5.6 5.5 5.3 5.4 4.9 5.2
4.3 4.5 4.7 4.7 4.6 4.4 4.0 3.8 3.7 4.1 4.2 4.4 4.8 5.2 5.1 5.2 5.4 5.9 5.8 6.1 6.6 6.8 6.8 6.2 6.1 6.0 5.6 5.5 5.5 5.5 5.6 5.8 5.3 5.2 5.3 5.1 5.1 5.7 5.4 5.7 5.5 5.3 5.5 5.1 5.1
4.4 4.7 4.7 4.7 4.4 4.1 3.8 3.8 3.9 4.3 4.5 4.7 5.1 5.2 5.2 5.6 5.8 6.0 6.6 6.2 6.6 7.0 6.9 6.4 5.9 6.0 5.5 5.6 5.9 5.9 6.2 5.7 5.5 5.1 5.0 5.5 5.5 5.2 5.5 5.6 5.4 5.4 5.6 5.2 5.3
4.7 4.9 4.9 4.7 4.3 4.1 3.9 4.0 4.5 4.8 5.0 5.3 5.3 5.4 5.6 5.9 6.0 5.8 6.4 6.7 6.7 6.8 6.7 6.8 6.3 6.0 5.9 6.1 7.1 6.4 6.1 5.7 5.5 4.8 5.1 5.2 5.5 5.5 5.4 5.2 5.3 5.5 5.1 5.2 5.2
4.9 5.1 5.0 4.6 4.4 4.2 4.2 4.4 4.9 5.2 5.7 5.6 5.7 5.7 5.7 6.1 6.2 6.1 6.2 6.4 6.4 6.6 6.9 7.2 6.8 6.5 6.9 7.5 7.2 6.8 6.0 5.4 5.9 5.4 5.1 5.5 5.1 5.1 5.3 5.1 4.9 5.6 5.0 5.2 5.5
5.2 5.3 4.9 4.7 4.6 4.5 4.4 4.8 5.0 5.4 6.1 6.2 6.3 6.4 6.4 6.3 6.6 6.6 6.5 6.5 6.6 6.8 6.9 6.9 7.1 7.8 7.5 8.0 7.5 6.9 6.5 5.8 5.7 5.6 5.2 5.3 5.5 5.3 5.4 5.3 5.3 5.5 5.0 5.2 5.1
5.3 5.2 5.0 4.9 4.7 4.8 4.9 5.1 5.1 5.5 6.1 6.9 6.9 6.9 7.0 7.2 7.3 7.1 7.1 6.9 7.0 7.1 7.0 6.9 8.3 8.1 8.1 8.3 7.5 7.0 7.4 6.1 6.0 5.5 5.6 5.4 5.1 5.3 5.6 5.5 5.7 5.7 4.8 5.0 5.2
5.5 5.4 5.2 5.1 5.2 5.2 5.6 5.5 5.4 5.9 6.4 7.1 7.0 7.4 7.6 7.7 7.7 7.6 7.4 7.5 7.5 7.8 7.5 7.4 8.0 8.1 8.6 8.1 7.9 7.4 7.0 6.8 5.9 5.7 5.6 5.3 5.3 5.4 5.6 5.6 5.5 5.1 5.2 5.2 5.0
5.6 5.5 5.3 5.2 5.4 5.5 6.0 6.1 6.0 5.9 5.7 7.6 8.0 8.4 8.5 8.0 8.2 8.2 7.8 7.8 7.9 7.9 7.8 8.3 8.4 8.6 8.8 8.3 8.0 7.8 7.2 7.1 6.1 5.5 5.8 5.0 5.2 5.7 5.2 5.6 5.4 5.3 5.1 5.2 4.9
5.7 5.6 5.6 5.7 5.9 6.2 6.4 6.7 7.0 6.6 7.1 8.3 8.8 8.7 8.6 8.5 8.4 8.7 8.7 8.5 8.0 7.8 7.9 8.2 8.6 8.7 8.9 9.2 8.8 8.1 7.7 7.2 6.3 5.9 5.4 5.5 5.7 6.0 5.6 5.8 5.8 5.6 5.6 5.9 5.1
5.8 5.6 5.6 5.9 6.1 6.2 6.6 7.0 7.5 6.5 8.2 8.9 8.5 8.4 8.3 8.4 8.5 8.5 8.6 8.4 8.6 8.3 8.7 8.9 8.9 9.0 9.0 8.8 8.5 8.5 8.1 6.3 6.0 5.8 6.0 5.6 5.5 6.1 5.5 5.4 5.0 5.9 5.8 5.7 5.2
5.7 5.7 5.8 6.3 6.5 6.4 6.6 7.4 7.1 7.7 8.7 8.7 8.9 8.9 8.7 8.4 8.6 8.6 8.7 8.8 8.8 8.7 8.8 8.7 9.2 9.2 8.5 9.0 8.9 8.4 8.3 7.5 6.3 6.5 6.5 5.5 5.5 6.3 5.9 6.0 5.8 5.1 5.5 5.4 5.3
5.9 5.8 6.2 6.4 6.7 6.7 6.9 7.9 7.7 8.2 8.7 8.9 8.3 8.6 8.9 8.8 8.9 9.1 9.1 9.0 9.1 9.2 8.9 9.2 9.2 9.4 9.0 9.0 8.7 8.1 8.3 8.6 7.9 6.9 6.6 6.4 6.7 6.7 6.8 6.5 6.1 5.5 4.8 5.5 5.4
6.1 6.2 6.3 6.5 6.9 6.9 6.9 7.5 7.1 8.1 8.4 8.6 8.8 8.6 8.9 8.7 8.9 8.8 8.9 8.8 9.0 9.0 9.3 8.8 9.1 9.2 9.1 9.3 8.9 8.6 8.8 7.9 7.5 6.0 6.5 6.1 6.9 7.2 7.5 7.6 6.6 5.9 5.2 5.3 5.6
6.3 6.4 6.2 6.6 7.2 7.1 7.4 7.4 7.5 8.5 8.5 8.9 8.8 8.6 8.9 8.8 8.5 8.3 8.7 8.6 8.7 8.8 9.1 9.2 8.9 9.3 9.3 9.1 9.1 8.9 8.9 8.9 8.6 8.3 7.1 6.3 7.1 8.4 8.1 7.5 7.2 6.3 6.0 5.4 5.6
6.6 6.6 6.6 6.9 7.2 7.1 7.8 7.8 7.6 8.3 8.5 8.8 8.5 8.4 8.7 8.5 8.5 8.5 8.3 8.8 8.2 8.3 8.5 8.5 8.7 8.9 9.1 9.3 9.4 9.3 9.2 9.0 8.7 8.8 8.5 8.1 8.3 8.7 8.1 7.3 6.9 6.8 6.9 6.7 6.0
6.6 6.6 6.6 7.0 7.2 7.3 8.0 7.6 8.1 8.3 8.4 8.4 8.4 8.6 8.6 8.5 8.5 8.7 8.4 8.3 8.3 8.7 8.3 8.4 8.4 8.5 8.9 9.2 9.1 8.9 8.7 8.5 8.8 8.6 8.2 7.8 8.4 8.8 8.0 7.0 6.6 6.5 6.8 6.6 6.3
6.4 6.8 6.7 7.0 7.2 7.2 7.9 8.0 8.2 8.0 8.0 8.1 8.3 8.5 8.3 8.4 8.1 8.0 8.2 8.3 8.4 8.4 8.4 8.3 8.2 8.1 8.0 8.2 8.3 8.4 8.6 8.6 8.5 7.8 7.4 8.2 8.2 8.6 8.3 7.3 6.4 6.5 6.8 6.7 6.8
6.2 6.5 6.7 7.4 7.4 7.8 7.9 8.6 8.6 8.1 7.9 8.1 8.1 7.8 8.2 8.2 8.1 8.0 8.0 8.1 8.2 8.1 8.0 8.1 8.1 8.2 8.2 8.3 8.2 7.9 7.9 8.1 8.2 7.5 7.0 7.9 8.5 8.4 8.1 7.3 6.7 6.5 7.0 6.9 6.8
6.5 6.8 6.8 7.1 7.6 7.9 8.1 8.8 8.7 8.5 8.2 8.2 8.1 7.9 7.7 7.8 7.8 8.1 8.0 8.3 8.1 8.3 8.1 8.0 8.1 8.1 8.3 8.1 8.2 8.0 7.8 7.5 7.8 7.9 7.6 7.3 7.8 7.7 7.5 6.7 6.6 6.8 6.9 7.4 7.1
6.6 6.8 7.0 7.4 7.5 8.0 8.2 8.3 8.6 8.4 8.3 8.6 8.4 8.2 7.8 8.0 7.9 8.0 8.6 8.4 7.9 7.9 8.2 8.1 8.2 8.2 8.4 8.5 8.1 7.9 7.1 7.3 7.2 7.3 7.7 7.1 6.7 6.8 7.4 7.2 6.8 6.7 6.7 6.8 7.1
Wind_Speed
13 13 12 12 12 12 11 11 11 11 11 12 12 13 15 17 17 2 6 10 8 12 2 4 4 4 3 4 8 4 3 1 1 4 3 4 9 6 9 21 13 5 16 15 17
13 13 13 13 12 12 12 11 11 11 11 11 12 13 13 14 4 8 13 17 16 14 4 4 4 4 2 4 3 3 2 8 9 11 1 2 3 17 17 17 12 17 19 20 21
13 14 14 13 13 12 12 12 11 11 11 11 11 11 12 13 3 7 10 24 17 11 4 2 5 2 4 1 4 4 3 5 19 12 5 2 7 6 14 4 21 21 24 23 20
13 13 14 14 14 13 13 13 12 11 11 10 10 11 12 2 3 3 4 23 14 8 2 0 1 3 4 6 5 4 1 3 7 13 5 1 4 7 1 9 17 19 25 22 19
14 14 14 14 14 14 13 13 12 12 10 10 9 9 3 1 8 6 5 18 9 6 5 5 4 5 3 3 5 4 5 5 5 7 7 11 10 3 5 13 21 20 20 21 18
14 14 15 15 14 14 14 13 12 12 10 9 7 8 1 3 5 9 9 9 7 6 5 7 6 1 5 5 4 4 10 10 7 8 7 9 3 8 12 18 20 25 19 18 17
15 15 15 15 15 15 15 15 14 11 10 7 6 3 2 11 4 8 8 6 6 7 5 7 1 1 8 3 4 10 6 10 9 8 5 17 7 8 4 16 13 19 14 13 20
15 16 16 16 16 17 18 17 14 11 8 5 4 2 7 7 9 7 7 3 6 7 7 3 2 3 4 2 5 2 2 4 6 3 0 3 5 1 10 16 14 14 12 12 23
15 16 17 17 17 17 20 20 14 8 5 4 0 1 9 12 2 7 8 6 6 5 7 8 1 6 1 6 4 5 2 4 3 7 3 6 5 3 6 11 14 13 9 16 17
17 17 18 17 17 18 24 21 4 4 2 4 5 4 5 4 4 3 8 6 5 3 2 4 2 2 3 3 5 4 2 3 6 3 6 5 7 4 8 9 3 10 7 18 19
20 20 20 19 17 16 11 3 3 1 1 8 6 5 7 4 4 3 5 7 3 4 5 3 4 4 11 3 3 4 6 6 8 9 7 3 8 9 5 3 5 6 9 15 16
21 21 21 21 19 16 4 1 7 3 8 13 14 8 11 7 1 4 5 3 6 6 1 6 6 9 5 5 7 6 7 6 5 9 2 5 8 10 9 2 3 3 3 17 12
22 23 23 24 24 3 4 7 8 9 3 9 5 5 6 4 3 5 8 4 3 3 4 7 8 7 6 6 8 1 9 9 7 8 1 5 4 4 5 4 2 2 5 5 19
22 22 23 27 3 4 5 5 6 6 4 7 2 4 3 3 4 7 8 4 1 9 5 6 12 9 9 12 6 3 6 14 11 8 3 4 2 5 8 5 4 4 2 1 10
23 21 19 8 6 2 7 8 8 4 4 2 1 5 5 5 1 1 5 4 7 7 4 9 6 7 7 17 9 6 10 11 7 2 1 3 0 3 5 8 7 8 6 4 1
23 18 15 2 2 8 15 9 4 5 3 3 5 4 0 3 4 7 5 2 4 5 5 10 6 6 6 10 15 18 13 11 6 2 0 2 3 4 5 6 11 9 7 6 3
25 15 6 4 4 10 7 4 5 3 6 2 3 3 4 2 3 6 5 3 3 4 4 7 6 6 16 17 7 15 6 3 1 1 2 4 5 8 4 9 15 16 13 10 6
31 17 7 6 11 10 4 5 3 7 4 7 4 5 3 3 3 3 3 3 4 4 2 4 6 10 6 11 12 8 7 6 6 4 3 4 4 6 12 13 16 15 14 7 8
28 1 2 5 11 4 5 4 4 4 4 6 3 4 3 3 5 1 7 3 4 8 6 0 5 4 7 7 11 5 5 5 7 3 2 3 6 8 7 5 4 14 16 14 11
3 3 4 6 17 5 4 4 4 1 4 5 4 3 2 6 5 7 5 3 7 4 4 3 2 2 8 7 7 9 7 4 2 5 3 2 5 5 5 9 12 15 17 16 10
2 4 4 15 4 4 2 6 5 3 1 2 4 3 5 2 4 5 6 4 10 8 7 3 4 8 4 1 9 2 2 5 5 5 5 3 6 8 12 9 12 15 17 17 13
3 3 2 3 3 2 2 5 4 4 6 7 5 6 4 3 3 4 3 3 10 4 4 3 4 2 4 8 4 4 3 4 5 4 1 4 6 3 9 7 9 15 18 17 15
3 3 5 5 3 3 6 6 6 2 4 4 5 4 4 2 1 1 1 4 3 3 2 5 4 4 8 7 7 6 5 2 3 3 2 3 6 6 9 7 8 10 13 18 19
2 3 4 4 1 3 5 6 3 2 3 3 1 5 4 7 4 2 4 4 5 4 7 5 3 4 4 6 4 8 9 6 6 4 5 5 8 2 6 7 2 3 8 15 18
1 4 3 3 5 8 5 3 5 1 4 8 7 9 2 6 5 6 6 7 6 5 5 5 3 4 3 7 18 16 12 11 8 2 4 9 7 12 13 5 6 7 0 8 8
1 1 4 4 4 7 3 1 8 3 3 2 3 5 6 5 4 2 2 3 4 6 3 3 1 2 3 6 16 12 12 13 8 9 2 6 4 10 8 11 13 8 10 11 9
3 4 3 5 5 5 3 7 6 7 1 6 4 4 6 4 3 5 2 3 1 4 3 3 3 3 2 6 4 7 7 9 8 8 2 8 5 6 9 8 5 7 9 9 11
Wind_Direction
349 345 341 334 330 328 326 324 321 320 319 319 319 322 325 327 318 174 236 221 183 235 142 279 225 219 212 243 223 134 130 111 28 277 185 141 166 156 130 128 142 153 138 141 137
349 345 338 333 330 327 325 325 324 322 323 322 322 324 326 330 297 249 239 221 229 241 182 243 228 185 234 224 213 122 126 159 189 233 160 222 84 129 133 138 140 125 125 132 134
346 340 336 333 329 326 323 323 325 324 324 324 323 321 324 325 299 246 222 214 202 175 193 233 308 291 220 228 210 150 208 172 199 199 226 293 55 125 126 115 155 148 145 144 143
342 339 335 332 332 327 324 322 322 322 322 323 321 320 319 273 190 269 304 194 170 182 180 259 278 196 226 215 189 127 14 154 165 197 180 120 70 129 310 189 157 145 149 149 148
342 340 334 332 333 330 325 321 319 317 318 317 323 327 350 15 252 260 47 159 148 164 188 187 208 179 219 323 119 134 165 74 83 99 86 96 30 56 246 244 148 151 153 157 157
340 339 334 331 330 327 324 322 319 315 310 308 323 326 327 300 250 162 136 135 158 158 196 190 209 171 274 244 134 118 104 96 70 64 111 105 51 21 255 180 148 157 160 165 157
340 341 332 327 326 325 324 319 313 309 306 301 313 288 279 239 78 134 164 196 174 171 203 225 168 261 359 355 143 144 111 86 47 68 95 120 185 241 264 141 136 161 170 153 158
340 336 329 329 327 324 314 310 305 299 295 283 298 298 249 258 237 207 197 200 183 198 215 266 135 273 197 128 33 2 94 98 19 59 14 279 186 236 179 150 180 161 181 134 152
337 333 328 327 325 320 310 307 297 289 262 223 126 174 273 306 228 246 151 186 176 226 242 260 142 210 201 102 61 8 149 75 132 8 358 38 171 0 322 184 165 170 179 143 153
338 335 328 327 325 325 318 306 241 308 183 191 263 313 265 254 215 186 192 168 177 177 324 210 179 211 41 104 202 148 158 99 92 56 342 342 256 357 7 169 239 179 163 146 156
338 336 334 329 327 334 350 2 19 22 215 208 213 244 270 283 138 185 201 136 192 104 183 220 74 205 217 149 183 129 97 179 167 153 169 232 261 284 352 26 316 346 164 153 158
337 337 331 325 324 322 309 217 212 177 309 222 243 243 272 265 192 294 114 147 139 196 173 4 214 224 206 230 195 124 124 156 106 150 282 201 255 284 291 233 229 1 309 161 127
333 335 330 322 315 298 195 229 263 54 309 299 193 195 231 134 223 252 150 172 154 185 197 180 228 208 209 228 182 140 146 178 147 161 86 146 260 233 271 170 237 258 310 189 145
328 328 330 324 313 334 255 278 307 149 37 280 259 258 159 164 294 197 200 120 260 201 212 232 253 219 210 233 144 121 135 119 142 157 217 188 252 226 259 209 220 229 293 269 160
322 320 329 339 302 281 248 345 312 72 19 199 193 180 126 147 293 243 166 165 255 255 119 242 242 197 200 230 136 164 161 146 143 116 59 228 258 214 168 241 220 238 205 234 143
315 316 329 97 225 245 310 321 43 46 279 236 141 173 130 197 250 192 173 126 205 238 225 241 243 168 221 144 133 132 90 48 59 65 188 247 194 261 181 214 218 209 197 230 195
311 299 296 290 229 0 313 39 35 113 319 13 169 149 207 217 22 153 182 216 194 26 359 328 264 99 104 83 87 117 99 63 355 259 223 306 175 276 264 236 221 206 184 213 209
315 301 226 226 253 5 26 51 44 294 10 8 87 65 19 32 314 187 149 250 250 149 273 225 323 137 200 157 168 182 150 148 215 181 156 216 119 263 226 296 258 205 178 198 230
319 85 217 249 215 141 63 43 227 310 313 7 351 69 313 296 186 348 190 205 256 174 196 276 290 316 181 156 144 203 204 165 104 351 113 157 254 287 234 289 158 184 155 191 227
338 345 258 175 143 74 72 238 257 301 347 38 46 33 331 330 57 40 344 149 346 326 190 263 359 316 294 115 254 150 169 78 2 142 184 253 285 260 219 193 171 178 175 188 205
4 10 259 136 93 57 177 233 265 244 63 331 6 317 0 61 74 10 310 349 16 331 62 37 89 300 8 44 185 353 24 68 120 140 157 160 257 214 227 170 177 171 179 189 203
355 355 212 45 88 206 213 211 246 9 24 26 60 30 48 45 118 177 238 11 346 340 12 328 127 323 272 293 43 71 48 93 123 260 163 157 266 172 183 172 163 187 188 196 197
354 260 302 109 230 261 282 274 210 55 50 45 17 15 3 9 57 233 309 273 343 65 69 330 13 11 350 349 11 47 1 70 144 77 131 130 270 17 121 155 180 181 201 195 194
10 341 313 37 77 265 283 301 185 112 85 104 317 27 20 18 14 88 356 29 23 42 49 80 76 121 170 234 255 12 4 52 85 70 300 217 296 276 155 163 167 195 198 206 197
157 257 220 293 316 315 210 251 115 132 74 28 22 24 25 23 36 32 355 356 3 36 47 88 62 16 356 62 75 52 33 58 73 261 122 294 339 9 4 9 27 303 29 175 162
209 13 340 266 316 343 5 292 119 93 108 11 76 37 59 68 146 23 81 23 288 349 62 11 334 32 28 78 79 54 47 55 58 9 28 16 31 4 14 31 16 345 92 81 129
308 325 118 291 357 1 276 211 159 124 41 122 106 84 47 325 306 286 239 123 178 30 2 51 97 55 329 313 98 33 343 63 62 24 2 41 329 1 18 29 342 352 18 68 86